ARIANE 42P DEB *, 47108

Orbit data source: Space-Track

ARIANE 42P DEB *, 47108 is space debris in LEO originally from a launch on Mon, 10 Aug 1992 UTC launched from the French Guiana (FRGUI). Debris objects in space refer to the collection of defunct objects orbiting the Earth. Examples of debris include non-operational satellites, rocket bodies, and fragments generated from explosions, collisions, or faulty payload assembly.

Loading next visibility...
Identifier
47108, 1992-052P
Orbit
LEO
Country
Flag of FRFR
Related business
Manufacturer
ArianeGroup
Mission
Spacecraft
Bus & Motor
Unknown
Mass
Unknown
Launch date (UTC)
1992-08-10 (33 years ago)
Launch vehicle
Unknown
Launch site
French Guiana (FRGUI)
Object type
Payload
Rocket body
Debris
Shape & HBR
Unknown
Radar Cross Section
Small (<0.1 m²)

Expand to show TLE details & history
Last TLE update: 3 days ago

TLE from 3 days ago
0 ARIANE 42P DEB *
1 47108U 92052P   25258.13379149  .00002724  00000-0  14798-2 0  9993
2 47108  65.8158 209.2083 1168305  38.0918 329.7093 12.43570587 64995
Epoch: 2025-09-15T03:12Z
TLE epoch observation values (Epoch: 2025-09-15T03:12:39.584Z)
Latitude
-0.00007°
Longitude
166.70052°
Altitude
731.37 km
Speed
7.844 km/s
True Right ascension
13h 56m 49s
True Declination
0° 00' 00"
Sunlit
Object was in daylight at epoch
Visualization orbit readout
Latitude
Unknown
Longitude
Unknown
Altitude
Unknown
Speed
Unknown
Apparent Right ascension
Unknown
Apparent Declination
Unknown
Sunlit
N/A
Visualization observer readout
Local Sidereal Time
15:40:06
Azimuth
Unknown
Elevation
Unknown
Doppler factor
Unknown
Orbital elements
Apogee altitude
2,409.339 km
Perigee altitude
570.841 km
Semi-major axis
7,868.227 km
Eccentricity
0.11683
Inclination
65.8158°
RAAN
209.2083°
Arg. of periapsis
38.0918°
True anomaly
322.01243°
Mean anomaly
329.7093°
Eccentric anomaly
325.96249°
Mean motion
3.10977 °/min
Orbital period
115.76 mins
BSTAR
0.0014798
Loading maneuver chart data...
Computing Atmospheric mass density...
Loading historical data...
Loading historical data...
Loading historical data...
Loading historical data...
Loading historical data...
Loading historical data...
Loading historical data...

Documentation

Showing up to 5 results
|